Location: Radomski Observatory
(40.2854°N, 79.5145°W)
Time: 04:26:59
(UTC-04:00)

Cosmos 1072 Rocket - Visible Passes

Search period start: 28 May 2017 00:00
Search period end: 07 June 2017 00:00
Orbit: 948 x 1010 km, 82.9° (Epoch: 27 May)

Date Brightness Start Highest point End Pass type
(mag) Time Alt. Az. Time Alt. Az. Time Alt. Az.
28 May 6.4 01:58:34 10° NNE 02:03:07 21° ENE 02:07:20 11° ESE visible
28 May 4.6 03:42:58 10° NNW 03:48:56 56° W 03:52:02 29° SSW visible
29 May 5.5 02:24:06 10° N 02:29:48 38° ENE 02:33:10 22° SE visible
29 May 5.4 04:09:50 10° NNW 04:15:04 30° W 04:17:53 21° SW visible
30 May 4.6 02:50:10 10° N 02:56:18 72° E 02:59:03 35° SSE visible
30 May 6.1 04:37:31 10° NW 04:41:01 16° W 04:43:45 12° WSW visible
31 May 6.5 01:32:27 10° NNE 01:36:42 19° ENE 01:40:15 12° ESE visible
31 May 4.5 03:16:35 10° NNW 03:22:38 63° W 03:24:57 38° SSW visible
01 Jun 5.7 01:57:52 10° N 02:03:27 35° ENE 02:06:10 24° ESE visible
01 Jun 5.3 03:43:22 10° NNW 03:48:48 33° W 03:50:52 27° WSW visible
02 Jun 4.7 02:23:51 10° N 02:29:59 64° E 02:32:07 41° SE visible
02 Jun 6.0 04:10:51 10° NW 04:14:47 18° W 04:16:49 15° WSW visible
03 Jun 6.5 01:06:23 10° NNE 01:10:18 17° ENE 01:13:22 12° E visible
03 Jun 4.4 02:50:12 10° NNW 02:56:20 70° W 02:58:05 48° SSW visible
04 Jun 5.8 01:31:39 10° NNE 01:37:05 31° ENE 01:39:21 25° ESE visible
04 Jun 5.1 03:16:56 10° NNW 03:22:31 37° W 03:24:04 32° WSW visible
05 Jun 4.8 01:57:33 10° N 02:03:39 58° E 02:05:22 44° SE visible
05 Jun 5.9 03:44:14 10° NW 03:48:32 20° W 03:50:06 18° WSW visible
06 Jun 6.6 00:40:21 10° NNE 00:43:54 16° ENE 00:46:41 12° E visible
06 Jun 4.4 02:23:51 10° N 02:30:02 78° W 02:31:24 56° SSW visible
